Wind_Speed
17 16 16 16 16 16 15 15 15 15 14 13 13 15 16 17 17 18 19 19 20 21 23 24 24 23 22 21 20 19 18 18 19 19 18 19 21 22 23 23 24 25
13 13 13 12 11 11 11 12 12 11 10 11 13 15 15 15 16 17 17 18 19 20 22 23 23 21 19 19 19 18 17 18 18 17 16 18 19 21 22 22 22 23
8 9 8 8 8 8 9 10 10 8 9 11 12 13 14 14 15 16 16 17 18 18 20 21 20 18 17 17 16 15 15 17 17 16 16 17 17 18 20 21 22 23
5 6 6 7 8 9 9 10 8 7 8 10 10 12 13 13 14 15 15 16 17 18 18 18 18 18 17 17 15 14 14 14 13 13 14 15 15 17 20 21 22 22
5 5 5 6 7 8 8 8 8 7 7 9 9 11 13 13 13 15 16 16 17 17 17 17 17 17 17 16 16 15 13 12 12 11 12 13 13 14 16 17 19 19
5 5 5 4 4 6 8 8 8 7 7 8 9 10 11 12 13 15 16 16 16 17 17 16 17 16 16 16 16 16 13 13 13 13 14 14 12 11 11 10 9 11
3 3 3 2 3 6 8 8 7 6 6 8 9 9 9 11 13 15 16 16 16 16 16 16 17 16 16 16 16 15 14 13 13 13 13 14 14 13 11 11 11 10
1 1 1 2 4 6 7 6 6 6 7 8 9 9 9 11 13 14 15 16 15 15 15 16 17 16 16 16 16 16 15 14 14 14 13 12 12 13 12 12 12 12
1 1 1 2 3 4 5 5 6 6 7 9 10 11 10 11 13 14 15 15 16 16 16 17 17 17 16 16 17 17 17 16 16 14 13 12 10 11 12 11 11 11
1 1 1 1 2 3 4 5 6 7 9 10 11 12 12 13 14 15 16 17 17 18 18 18 18 17 16 16 17 17 17 17 16 14 13 12 10 10 11 12 11 10
3 3 2 2 2 3 4 6 8 9 9 9 11 13 14 15 15 15 17 18 18 17 18 18 18 17 17 17 17 17 16 16 15 13 12 11 10 10 12 14 13 10
5 4 3 2 3 4 6 7 9 9 9 10 12 14 15 15 15 15 16 16 16 15 15 15 16 17 18 19 18 17 17 15 14 13 13 13 13 12 13 14 14 12
5 5 5 5 6 7 8 8 9 10 12 14 15 14 14 15 14 14 14 14 14 14 14 15 16 18 19 20 19 18 17 16 16 16 16 16 16 14 14 14 14 14
8 9 9 10 11 11 11 12 13 14 15 15 14 13 14 14 13 13 13 13 15 15 16 17 18 19 20 20 19 19 19 18 17 17 18 18 18 17 16 16 16 15
13 13 14 14 14 15 15 16 16 15 14 13 12 13 13 12 12 12 12 13 14 15 16 17 19 20 20 20 20 20 20 20 20 20 21 21 21 21 20 19 18 17
16 15 15 16 15 16 16 16 15 13 12 12 13 13 12 12 12 11 11 12 12 13 14 15 17 19 18 17 19 19 18 17 17 18 20 21 21 22 23 22 20 18
15 15 15 15 15 14 14 14 13 12 12 12 12 13 13 12 12 11 12 12 11 12 12 13 16 17 16 16 17 17 17 16 15 16 16 17 19 21 23 23 21 19
15 14 14 14 14 14 13 12 11 11 11 11 12 13 13 13 13 13 13 13 13 13 14 15 17 17 16 16 17 17 17 16 16 16 17 17 17 19 20 21 21 20
14 13 14 14 14 13 12 11 10 10 10 11 11 12 12 13 14 14 14 15 15 16 17 19 20 20 19 19 19 19 18 18 18 18 18 19 19 19 19 20 21 21
13 13 14 14 13 13 12 11 11 12 12 12 12 12 11 12 13 14 15 16 17 18 19 20 22 22 21 21 20 20 19 19 20 20 20 20 21 20 20 21 22 22
12 13 13 14 14 13 13 13 13 13 14 14 13 13 13 14 14 14 15 16 17 17 18 20 21 21 20 20 19 19 19 18 18 19 19 20 20 20 20 21 21 21
13 13 14 14 14 12 12 13 13 13 14 14 14 14 15 15 15 16 16 16 16 16 16 18 19 19 18 18 17 17 16 16 16 16 16 18 19 19 19 18 19 20
14 13 13 13 12 11 12 13 13 13 14 13 12 13 14 15 15 16 16 15 15 16 16 17 18 18 18 17 17 16 15 15 16 15 15 17 19 19 19 18 18 19
13 12 12 12 12 13 14 14 14 14 14 13 13 14 15 16 16 17 17 18 18 19 19 19 20 20 19 18 18 17 16 16 17 16 17 18 19 19 19 19 19 19
13 13 13 14 15 16 16 16 16 16 15 15 15 16 17 18 18 18 20 21 22 22 22 22 23 23 23 22 22 21 20 19 18 18 18 18 18 18 19 19 19 20
14 14 15 15 16 17 17 17 17 16 16 16 16 17 17 18 18 19 21 22 22 22 23 23 24 24 25 25 25 25 24 24 23 24 23 21 20 20 20 21 21 22
Wind_Direction
265 266 266 268 273 278 282 286 293 299 303 308 312 314 318 322 324 325 326 327 328 331 330 328 327 322 316 314 312 308 303 297 293 288 286 290 291 289 286 283 280 277
263 264 266 270 275 278 284 291 295 299 305 311 314 318 323 325 326 328 329 330 333 336 336 336 338 335 327 322 318 312 305 299 295 294 294 292 290 290 287 283 280 279
253 260 264 266 269 273 284 295 299 299 303 310 317 324 328 329 329 331 333 334 338 340 341 344 348 349 346 341 333 325 322 317 308 299 295 293 293 292 288 285 282 279
242 255 260 268 280 288 296 303 305 303 303 312 324 331 332 332 332 335 338 339 342 344 346 350 352 354 355 354 350 344 340 337 328 311 298 296 296 295 291 287 283 280
239 257 268 278 294 308 312 311 312 312 313 318 327 333 335 336 337 341 344 346 348 349 350 352 353 355 357 359 360 357 353 351 350 341 325 316 312 309 305 294 284 282
245 266 281 286 307 326 326 325 325 324 321 319 326 336 339 340 342 346 349 352 353 353 354 356 357 359 1 2 4 4 1 358 357 354 345 340 335 330 336 336 320 306
264 277 287 308 334 334 331 333 337 339 335 330 335 342 343 345 348 350 351 355 357 355 357 1 3 5 5 5 10 12 10 4 357 351 344 343 343 342 350 360 357 349
303 306 329 341 340 337 337 345 353 358 358 351 349 350 351 352 354 354 355 359 2 359 1 8 10 11 11 12 17 20 20 15 6 359 352 347 347 350 353 356 354 348
10 30 21 349 344 347 353 9 15 12 12 8 1 360 2 2 2 5 8 12 15 12 14 18 16 17 21 21 22 24 23 20 15 12 11 7 1 354 348 344 342 340
104 98 81 14 11 16 21 29 31 26 25 21 13 12 16 18 19 20 22 24 25 23 21 20 18 23 27 26 25 25 25 23 19 18 20 20 17 5 353 349 345 338
125 122 110 66 33 31 36 43 44 40 36 29 24 26 30 31 31 32 30 28 27 24 20 18 21 27 31 30 28 26 27 25 21 19 21 23 21 9 3 5 4 356
123 116 95 65 46 49 55 58 56 50 45 44 41 41 40 39 37 36 33 32 31 27 24 24 28 31 33 33 30 28 29 27 24 22 20 18 15 8 5 4 2 1
114 102 86 76 73 72 71 73 71 64 61 59 55 52 49 45 40 37 36 38 39 38 37 38 39 38 37 36 34 32 32 28 25 24 21 19 19 17 15 12 6 3
102 94 88 85 83 82 81 80 79 74 70 67 61 56 53 48 44 43 45 48 49 49 49 47 46 44 40 38 37 36 35 34 33 30 28 26 27 27 27 25 21 14
99 94 91 89 87 86 84 81 79 75 72 68 61 56 54 51 51 52 52 51 50 50 49 47 47 45 40 35 31 31 32 37 40 39 37 34 33 33 31 28 26 21
101 96 92 89 86 85 83 80 79 76 70 66 61 58 56 55 54 53 52 48 43 40 40 43 48 48 42 33 27 24 25 29 31 31 31 31 33 35 32 28 26 25
105 101 96 92 88 85 83 81 80 75 69 65 62 61 61 59 55 51 50 47 44 42 40 45 51 49 41 34 28 23 22 23 23 21 21 21 25 29 29 26 25 25
114 109 103 98 94 90 87 84 80 75 70 66 65 65 65 63 59 56 55 55 54 54 53 54 54 49 39 33 28 22 20 20 21 21 23 24 26 29 30 30 29 27
120 115 108 102 97 92 88 84 79 74 70 67 66 67 66 64 62 60 59 58 56 57 58 57 54 48 42 38 33 27 23 24 27 29 32 34 36 37 36 35 32 29
124 119 111 104 99 93 88 83 76 72 71 70 69 68 65 64 62 60 58 56 54 54 56 55 52 47 43 41 39 36 32 31 33 35 36 39 40 41 41 39 36 35
122 117 110 105 100 95 89 83 77 74 74 73 71 69 68 67 66 64 62 60 58 56 55 55 53 47 42 40 38 37 36 34 33 33 35 38 40 42 45 47 46 45
113 110 108 104 100 95 89 83 78 77 76 75 75 75 75 74 72 70 68 66 64 60 58 59 57 51 45 40 37 35 34 32 31 30 31 34 36 37 40 46 47 44
108 107 105 103 100 95 89 84 82 81 81 82 81 81 80 77 74 73 71 69 67 62 59 60 59 54 49 45 41 37 36 37 37 35 35 37 37 35 34 36 38 38
105 104 104 103 100 94 90 88 87 85 85 84 82 81 80 77 75 74 72 69 68 65 62 61 59 56 52 49 46 41 39 43 44 44 45 46 45 42 39 39 40 39
104 103 101 100 98 95 93 91 89 87 86 85 84 82 82 80 78 77 75 72 70 68 66 64 61 59 54 51 50 47 45 46 46 47 48 49 48 47 45 43 42 40
105 103 101 99 97 96 95 93 90 90 89 87 86 85 84 83 80 78 76 74 71 68 66 64 61 58 54 51 49 47 46 46 46 46 47 47 48 47 45 43 41 38
Height
1532 1531 1530 1529 1528 1527 1527 1526 1524 1523 1521 1520 1519 1518 1516 1515 1513 1511 1510 1508 1506 1504 1501 1499 1496 1494 1492 1491 1489 1488 1487 1486 1485 1484 1484 1483 1482 1482 1481 1481 1481 1482
1530 1529 1528 1528 1527 1526 1525 1524 1523 1522 1521 1520 1518 1517 1516 1514 1512 1511 1509 1507 1505 1503 1500 1498 1495 1493 1491 1490 1488 1487 1485 1484 1483 1482 1481 1481 1480 1479 1479 1479 1479 1478
1529 1528 1527 1526 1526 1525 1524 1523 1521 1520 1520 1519 1517 1516 1515 1513 1512 1510 1508 1506 1504 1502 1500 1497 1495 1493 1491 1489 1488 1486 1484 1483 1481 1480 1480 1479 1478 1477 1477 1477 1476 1476
1527 1527 1526 1525 1524 1524 1523 1522 1520 1519 1518 1517 1516 1515 1514 1513 1511 1509 1507 1506 1503 1502 1499 1497 1496 1494 1492 1490 1488 1486 1484 1483 1481 1479 1478 1477 1477 1476 1475 1475 1474 1473
1526 1526 1525 1524 1523 1522 1521 1520 1519 1518 1517 1516 1515 1515 1513 1512 1510 1509 1507 1505 1503 1501 1500 1498 1497 1495 1493 1491 1489 1487 1485 1483 1481 1479 1478 1477 1476 1475 1474 1472 1471 1471
1525 1524 1524 1523 1522 1521 1520 1519 1518 1517 1516 1516 1515 1514 1513 1511 1510 1508 1507 1505 1503 1502 1500 1498 1497 1495 1494 1492 1489 1487 1485 1484 1482 1480 1479 1477 1476 1475 1473 1471 1470 1470
1523 1523 1523 1522 1521 1521 1520 1519 1518 1517 1516 1515 1514 1513 1512 1511 1510 1509 1507 1505 1504 1502 1501 1499 1498 1496 1494 1492 1490 1488 1486 1484 1483 1481 1480 1478 1477 1475 1473 1472 1470 1470
1523 1523 1522 1522 1521 1520 1520 1519 1518 1517 1516 1515 1514 1513 1512 1511 1511 1509 1508 1506 1505 1503 1502 1500 1498 1497 1495 1493 1491 1489 1487 1485 1483 1482 1480 1479 1478 1476 1474 1473 1472 1471
1522 1523 1522 1522 1521 1520 1520 1519 1518 1517 1516 1516 1514 1513 1513 1512 1511 1510 1508 1507 1505 1504 1503 1501 1500 1498 1496 1494 1491 1490 1488 1486 1484 1483 1481 1480 1478 1477 1475 1474 1473 1472
1522 1523 1522 1522 1521 1520 1520 1519 1518 1518 1517 1516 1515 1514 1513 1513 1512 1511 1509 1508 1507 1505 1504 1503 1501 1499 1497 1495 1493 1491 1489 1487 1485 1484 1482 1480 1479 1478 1477 1475 1474 1473
1523 1523 1522 1522 1521 1521 1520 1519 1519 1518 1518 1517 1516 1515 1515 1514 1513 1512 1510 1509 1508 1507 1506 1504 1502 1500 1498 1496 1494 1492 1490 1488 1486 1485 1483 1481 1480 1478 1477 1476 1475 1474
1523 1523 1523 1522 1522 1521 1520 1520 1520 1519 1519 1518 1517 1516 1516 1515 1514 1513 1511 1510 1509 1508 1507 1505 1503 1502 1499 1497 1495 1493 1491 1489 1487 1486 1484 1482 1480 1479 1478 1477 1476 1475
1523 1523 1523 1522 1522 1521 1521 1521 1521 1520 1520 1519 1519 1518 1517 1516 1515 1514 1513 1511 1511 1509 1508 1507 1505 1503 1501 1499 1497 1494 1492 1491 1489 1487 1485 1483 1482 1480 1479 1478 1477 1476
1524 1524 1524 1523 1523 1522 1522 1522 1522 1521 1521 1520 1520 1519 1518 1517 1516 1515 1514 1513 1512 1510 1509 1508 1506 1504 1502 1500 1498 1496 1494 1492 1491 1489 1487 1485 1483 1482 1480 1479 1477 1476
1525 1525 1525 1524 1524 1524 1523 1523 1523 1523 1522 1522 1521 1520 1519 1518 1517 1516 1515 1514 1513 1511 1510 1508 1506 1504 1503 1502 1500 1498 1496 1495 1493 1491 1489 1488 1486 1484 1482 1480 1479 1477
1526 1526 1526 1526 1526 1525 1525 1525 1524 1524 1524 1523 1522 1521 1520 1519 1518 1517 1516 1515 1514 1512 1511 1509 1507 1505 1504 1503 1502 1500 1498 1496 1495 1493 1491 1490 1488 1486 1485 1483 1481 1479
1528 1528 1528 1527 1527 1527 1527 1526 1526 1525 1525 1524 1523 1522 1521 1520 1519 1518 1517 1516 1514 1513 1511 1510 1508 1506 1506 1505 1503 1501 1500 1498 1496 1494 1493 1491 1490 1488 1486 1485 1483 1481
1529 1529 1529 1529 1528 1528 1528 1528 1527 1527 1526 1525 1524 1523 1522 1521 1520 1519 1518 1517 1515 1514 1512 1511 1509 1508 1507 1506 1504 1503 1501 1499 1497 1496 1494 1492 1491 1489 1488 1486 1485 1483
1530 1530 1530 1530 1530 1530 1529 1529 1529 1528 1527 1526 1525 1524 1523 1522 1522 1521 1519 1518 1517 1515 1513 1512 1511 1510 1509 1507 1506 1504 1503 1501 1499 1497 1495 1494 1492 1491 1489 1487 1486 1484
1531 1531 1531 1531 1531 1531 1531 1530 1530 1529 1528 1527 1526 1526 1525 1524 1523 1522 1521 1520 1518 1517 1516 1514 1513 1512 1511 1509 1508 1506 1505 1503 1501 1499 1498 1496 1494 1493 1491 1490 1488 1487
1532 1533 1533 1533 1533 1533 1532 1532 1531 1530 1529 1529 1528 1527 1526 1525 1524 1523 1522 1521 1520 1519 1517 1516 1515 1514 1513 1511 1510 1508 1506 1504 1503 1501 1500 1498 1497 1495 1494 1492 1491 1490
1534 1534 1534 1534 1534 1534 1533 1533 1532 1531 1531 1530 1529 1528 1527 1527 1526 1525 1524 1523 1522 1521 1519 1517 1516 1516 1514 1513 1511 1510 1508 1506 1504 1503 1501 1500 1498 1497 1496 1495 1494 1492
1535 1536 1536 1536 1535 1535 1534 1533 1533 1532 1532 1531 1531 1530 1529 1528 1527 1526 1526 1525 1523 1522 1520 1519 1518 1517 1516 1515 1513 1511 1509 1508 1506 1504 1502 1501 1500 1499 1498 1497 1496 1494
1537 1537 1537 1537 1536 1536 1535 1534 1534 1534 1533 1533 1532 1531 1530 1530 1529 1528 1527 1526 1525 1523 1522 1521 1520 1519 1518 1516 1515 1513 1511 1509 1508 1506 1505 1503 1502 1501 1500 1499 1498 1496
1538 1538 1538 1538 1537 1536 1536 1536 1535 1535 1535 1534 1534 1533 1532 1532 1531 1530 1529 1528 1527 1526 1525 1523 1522 1521 1520 1518 1517 1515 1513 1512 1510 1509 1507 1506 1505 1503 1502 1501 1500 1498
1539 1540 1539 1539 1538 1538 1537 1537 1537 1537 1537 1536 1536 1535 1534 1534 1533 1532 1531 1530 1529 1528 1527 1525 1524 1523 1522 1520 1519 1517 1515 1514 1512 1510 1509 1508 1507 1506 1504 1503 1502 1500